Location: Augirein
(42.9320°N, 0.9181°E)
Time: 17:12:55
(UTC+00:00)

X-37B - Pass Details

Date: 20 June 2021
Orbit: 383 x 392 km, 45.0° (Epoch: 01 July)

Event Time Altitude Azimuth Distance (km) Brightness Sun altitude
Rises 03:34:39 0° 285° (WNW) 2,261 4.1 -7.0°
Reaches altitude 10° 03:36:47 10° 278° (W) 1,407 3.0 -6.7°
Maximum altitude 03:39:47 41° 206° (SSW) 570 1.0 -6.3°
Drops below altitude 10° 03:42:47 10° 135° (SE) 1,405 3.5 -5.9°
Sets 03:44:55 0° 127° (SE) 2,258 4.6 -5.6°
